Weather Roundup
Issued by NWS

Home | Current Version | Previous Version | Text Only | Print | Product List | Glossary On
Versions: 1 2 3 4 5 6 7 8 9 10 11 12 13 14 15 16 17 18 19 20 21 22 23 24 25 26 27 28 29 30 31 32 33 34 35 36 37 38 39 40 41 42 43 44 45 46 47 48 49 50
000
NZUS93 KARX 231210
HRRWXR

CURRENT HOURLY OBSERVATIONS ACROSS
MUCH OF THE UPPER MISSISSIPPI VALLEY
NATIONAL WEATHER SERVICE LA CROSSE WI
700 AM CDT WED APR 23 2014


...SOUTHEAST MINNESOTA...


CITY           SKY/WX    TMP DP  RH WIND       PRES   REMARKS
ROCHESTER      CLOUDY    40  28  62 SE12      30.11R WCI  33
ROCHESTER/MAYO FAIR      40  25  54 E9        30.11R WCI  35
WINONA         PTCLDY    37  32  81 SE5       30.14S WCI  34
AUSTIN         CLOUDY    43  30  61 SE13      30.08R
ALBERT LEA     CLOUDY    45  30  57 SE14      30.08R
DODGE CENTER   CLOUDY    43  30  61 SE12      30.09R
PRESTON        MOCLDY    40  29  62 SE9       30.12R WCI  35
OWATONNA       CLOUDY    43  30  61 SE14G20   30.08R
FARIBAULT      CLOUDY    45  27  49 SE13      30.09R
$$

...ELSEWHERE IN MINNESOTA...


CITY           SKY/WX    TMP DP  RH WIND       PRES   REMARKS
MINNEAPOLIS    CLOUDY    42  27  55 SE13      30.10R
INTNL FALLS    CLEAR     28  22  78 SE7       30.08S WCI  21
DULUTH         MOCLDY    32  24  72 SE5       30.11R WCI  27
RED WING       CLOUDY    43  28  56 SE8       30.11R
REDWOOD FALLS  CLOUDY    44  35  70 SE15      30.00F
MANKATO        CLOUDY    45  30  57 SE13      30.08R
WORTHINGTON    CLOUDY    46  30  53 E18       29.98F
FAIRMONT       CLOUDY    45  30  57 SE17      30.05S
$$

...SOUTHWEST WISCONSIN...


CITY           SKY/WX    TMP DP  RH WIND       PRES   REMARKS
LA CROSSE      PTCLDY    38  28  67 SE6       30.15R WCI  33
PRAIRIE DU CHI PTCLDY    40  29  63 E3        30.16R
BOSCOBEL       CLEAR     31  27  85 CALM      30.17R
LONE ROCK      CLEAR     32  28  85 CALM      30.17R
PLATTEVILLE    CLEAR     33  29  85 CALM      30.17R
FORT MC COY    PTCLDY    28  25  89 CALM      30.16S
CAMP DOUGLAS   MOCLDY    27  27 100 CALM      30.16R
VIROQUA        FAIR      36  27  71 SE9       30.13S WCI  29
WIS DELLS      CLEAR     31  27  83 CALM      30.16R
$$

...ELSEWHERE IN WISCONSIN...


CITY           SKY/WX    TMP DP  RH WIND       PRES   REMARKS
MILWAUKEE      MOSUNNY   36  29  75 N7        30.17R WCI  30
MADISON        PTCLDY    32  28  85 CALM      30.17R
GREEN BAY      SUNNY     32  28  85 NW3       30.18R
EAU CLAIRE     MOCLDY    37  27  67 E6        30.13S WCI  32
BLACK RVR FLS  FAIR      25  25  99 CALM      30.15S
MEDFORD        MOCLDY    30  26  84 E3        30.14R
WAUSAU         PTCLDY    29  25  85 CALM      30.14S
WIS RAPIDS     MOCLDY    28  25  88 E5        30.16S WCI  23
MARSHFIELD     MOCLDY    32  27  81 E3        30.14R
RICE LAKE      MOCLDY    31  26  84 CALM      30.15R
$$

...NORTHEAST IOWA...


CITY           SKY/WX    TMP DP  RH WIND       PRES   REMARKS
WATERLOO       CLOUDY    43  30  60 SE14      30.09F
DUBUQUE        PTCLDY    34  29  82 CALM      30.16R
DECORAH        PTCLDY    39  28  65 SE8       30.12S WCI  34
MASON CITY     CLOUDY    43  31  62 SE13      30.09R
CHARLES CITY   CLOUDY    41  30  65 SE16      30.09R
OELWEIN        MOCLDY   N/A N/A N/A SE14      30.12F
$$

...ELSEWHERE IN IOWA...


CITY           SKY/WX    TMP DP  RH WIND       PRES   REMARKS
DES MOINES     CLOUDY    50  31  48 SE10      30.06R
IOWA CITY      CLOUDY    41  33  73 E7        30.14S
FORT DODGE     CLOUDY    48  28  46 SE15G22   30.04R
MARSHALLTOWN   PTCLDY    44  32  62 SE13      30.06S
CEDAR RAPIDS   MOCLDY    41  32  70 SE14      30.10F
$$

...NORTHERN ILLINOIS...


CITY           SKY/WX    TMP DP  RH WIND       PRES   REMARKS
CHICAGO-OHARE  MOSUNNY   36  27  69 NE6       30.16R WCI  31
DUPAGE         CLEAR     33  28  81 N5        30.15R WCI  29
CHICAGO-MIDWAY MOSUNNY   38  28  67 NE13      30.16R WCI  30
MOLINE         MOCLDY    38  30  73 E6        30.16R WCI  33
ROCKFORD       PTCLDY    34  28  79 NE6       30.18R WCI  29
STERLING       CLEAR     34  28  80 E3        30.17R
PEORIA         CLEAR     40  29  64 E6        30.16R
$$

NOTE: "FAIR" INDICATES FEW OR NO CLOUDS BELOW 12,000 FEET WITH NO
SIGNIFICANT WEATHER AND/OR OBSTRUCTIONS TO VISIBILITY. WIND
SPEEDS ARE IN MILES-PER-HOUR.



USA.gov is the U.S. government's official web portal to all federal, state and local government web resources and services.